Aiken, SC

8:20 PM EDT on April 27, 2017 (GMT -0400)
Aiken Municipal

Weather History for KAIK - August, 2013

Change the Weather History Date:

Thursday, August 15, 2013

  Actual Average Record
Temperature  
Mean Temperature 66 °F -  
Max Temperature 69 °F 90 °F 91 °F (2016)
Min Temperature 62 °F 67 °F 62 °F (2013)
Growing Degree Days 16 (Base 50)    
Moisture  
Dew Point 66 °F    
Average Humidity 100    
Maximum Humidity 100    
Minimum Humidity 88    
Precipitation  
Precipitation 0.00 in - - ()
Sea Level Pressure  
Sea Level Pressure 30.11 in    
Wind  
Wind Speed 7 mph (ENE)    
Max Wind Speed 16 mph    
Max Gust Speed 23 mph    
Visibility 8 miles    
Events Rain    
Averages and records for this station are not official NWS values.
T = Trace of Precipitation, MM = Missing Value Source: NWS Daily Summary

Daily Weather History Graph

Daily Weather History Graph

Search for Another Location

Airport or City:

Trip Planner

Search our weather history database for the weather conditions in past years. The results will help you decide how hot, cold, wet, or windy it might be!

Date:

Astronomy

Aug. 15, 2013 Rise Set
Actual Time 6:49 AM EDT 8:12 PM EDT
Civil Twilight 6:22 AM EDT 8:39 PM EDT
Nautical Twilight 5:51 AM EDT 9:10 PM EDT
Astronomical Twilight 5:18 AM EDT 9:43 PM EDT
Moon 3:23 PM EDT (8/15) 1:01 AM EDT (8/15)
Length of Visible Light 14h 16m
Length of Day
13h 23m
Waxing Gibbous, 64% of the Moon is Illuminated
Aug 15
Waxing Gibbous
Aug 20
Full
Aug 28
Last Quarter
Sep 5
New
Sep 12
First Quarter

Hourly Weather History & Observations

Time (EDT) Temp. Dew Point Humidity Pressure Visibility Wind Dir Wind Speed Gust Speed Precip Events Conditions
12:15 AM 69.8 °F 69.8 °F 100% 30.05 in 7.0 mi NE 6.9 mph - N/A Rain Rain
12:35 AM 69.8 °F 69.8 °F 100% 30.07 in 7.0 mi East 6.9 mph - N/A   Light Drizzle
12:55 AM 69.8 °F 69.8 °F 100% 30.07 in 7.0 mi NNE 5.8 mph - N/A   Light Drizzle
1:15 AM 69.8 °F 69.8 °F 100% 30.07 in 7.0 mi NE 4.6 mph - N/A   Light Drizzle
1:35 AM 69.8 °F 69.8 °F 100% 30.07 in 7.0 mi NE 6.9 mph - N/A   Overcast
1:55 AM 69.8 °F 69.8 °F 100% 30.07 in 7.0 mi East 6.9 mph - N/A Rain Rain
2:15 AM 69.8 °F 69.8 °F 100% 30.07 in 7.0 mi ENE 5.8 mph - N/A   Light Drizzle
2:35 AM 69.8 °F 69.8 °F 100% 30.07 in 7.0 mi ENE 9.2 mph 16.1 mph N/A   Light Drizzle
2:55 AM 68.0 °F 68.0 °F 100% 30.06 in 7.0 mi East 8.1 mph - N/A   Light Drizzle
3:15 AM 68.0 °F 68.0 °F 100% 30.06 in 7.0 mi ENE 9.2 mph - N/A Rain Light Rain
3:35 AM 68.0 °F 68.0 °F 100% 30.06 in 5.0 mi East 8.1 mph - N/A Rain Light Rain
3:55 AM 68.0 °F 68.0 °F 100% 30.07 in 5.0 mi ENE 4.6 mph - N/A Rain Rain
4:15 AM 68.0 °F 68.0 °F 100% 30.06 in 4.0 mi ENE 6.9 mph - N/A Rain Light Rain
4:35 AM 68.0 °F 68.0 °F 100% 30.05 in 4.0 mi East 8.1 mph - N/A Rain Rain
4:55 AM 68.0 °F 68.0 °F 100% 30.06 in 5.0 mi ENE 13.8 mph - N/A   Drizzle
5:15 AM 68.0 °F 68.0 °F 100% 30.06 in 7.0 mi NE 12.7 mph - N/A   Overcast
5:35 AM 66.2 °F 66.2 °F 100% 30.05 in 7.0 mi ENE 11.5 mph - N/A   Overcast
5:55 AM 66.2 °F 66.2 °F 100% 30.07 in 5.0 mi NE 9.2 mph - N/A   Overcast
6:15 AM 66.2 °F 66.2 °F 100% 30.07 in 7.0 mi NE 9.2 mph - N/A   Overcast
6:35 AM 66.2 °F 66.2 °F 100% 30.08 in 7.0 mi NE 6.9 mph - N/A   Overcast
6:55 AM 66.2 °F 66.2 °F 100% 30.09 in 5.0 mi ENE 6.9 mph - N/A   Overcast
7:15 AM 64.4 °F 64.4 °F 100% 30.09 in 7.0 mi East 8.1 mph - N/A   Overcast
7:35 AM 64.4 °F 64.4 °F 100% 30.10 in 7.0 mi ENE 10.4 mph - N/A   Overcast
7:55 AM 64.4 °F 64.4 °F 100% 30.10 in 7.0 mi ENE 11.5 mph - N/A   Overcast
8:15 AM 64.4 °F 64.4 °F 100% 30.11 in 7.0 mi East 8.1 mph - N/A   Overcast
8:35 AM 64.4 °F 64.4 °F 100% 30.12 in 10.0 mi ENE 12.7 mph - N/A   Overcast
8:55 AM 64.4 °F 64.4 °F 100% 30.13 in 10.0 mi ENE 10.4 mph - N/A   Overcast
9:15 AM 64.4 °F 64.4 °F 100% 30.13 in 10.0 mi East 10.4 mph 16.1 mph N/A   Overcast
9:35 AM 64.4 °F 64.4 °F 100% 30.13 in 10.0 mi ENE 9.2 mph - N/A   Overcast
9:55 AM 64.4 °F 64.4 °F 100% 30.13 in 10.0 mi East 10.4 mph - N/A   Overcast
10:15 AM 64.4 °F 62.6 °F 94% 30.13 in 10.0 mi ENE 16.1 mph 23.0 mph N/A   Overcast
10:35 AM 64.4 °F 60.8 °F 88% 30.14 in 10.0 mi ENE 12.7 mph - N/A   Overcast
10:55 AM 64.4 °F 62.6 °F 94% 30.14 in 10.0 mi ENE 13.8 mph - N/A   Drizzle
11:15 AM 62.6 °F 62.6 °F 100% 30.14 in 4.0 mi East 10.4 mph - N/A Rain Light Rain
11:35 AM 62.6 °F 62.6 °F 100% 30.15 in 7.0 mi ENE 6.9 mph - N/A Rain Light Rain
11:55 AM 64.4 °F 64.4 °F 100% 30.15 in 10.0 mi ENE 6.9 mph - N/A Rain Rain
12:15 PM 64.4 °F 64.4 °F 100% 30.14 in 10.0 mi NE 8.1 mph - N/A Rain Light Rain
12:35 PM 64.4 °F 64.4 °F 100% 30.14 in 10.0 mi NE 4.6 mph - N/A Rain Light Rain
12:55 PM 64.4 °F 64.4 °F 100% 30.14 in 10.0 mi NE 5.8 mph - N/A Rain Light Rain
1:15 PM 64.4 °F 64.4 °F 100% 30.13 in 10.0 mi NE 8.1 mph - N/A Rain Light Rain
1:35 PM 66.2 °F 66.2 °F 100% 30.13 in 10.0 mi ENE 8.1 mph - N/A   Overcast
1:55 PM 68.0 °F 68.0 °F 100% 30.13 in 10.0 mi ENE 6.9 mph - N/A   Overcast
2:15 PM 66.2 °F 66.2 °F 100% 30.14 in 10.0 mi NNE 4.6 mph - N/A   Overcast
2:35 PM 66.2 °F 66.2 °F 100% 30.13 in 10.0 mi ENE 8.1 mph - N/A Rain Rain
2:55 PM 64.4 °F 64.4 °F 100% 30.13 in 5.0 mi ENE 4.6 mph - N/A Rain Rain
3:15 PM 64.4 °F 64.4 °F 100% 30.12 in 7.0 mi ENE 6.9 mph - N/A Rain Rain
3:35 PM 64.4 °F 64.4 °F 100% 30.09 in 7.0 mi ENE 9.2 mph - N/A Rain Rain
3:55 PM 64.4 °F 64.4 °F 100% 30.08 in 10.0 mi ENE 10.4 mph - N/A Rain Light Rain
4:15 PM 64.4 °F 64.4 °F 100% 30.08 in 10.0 mi ENE 9.2 mph - N/A Rain Light Rain
4:35 PM 64.4 °F 64.4 °F 100% 30.08 in 10.0 mi NE 8.1 mph - N/A Rain Rain
4:55 PM 64.4 °F 64.4 °F 100% 30.10 in 10.0 mi NNE 5.8 mph - N/A Rain Light Rain
5:15 PM 66.2 °F 66.2 °F 100% 30.11 in 10.0 mi NNE 4.6 mph - N/A   Overcast
5:35 PM 68.0 °F 68.0 °F 100% 30.11 in 10.0 mi ENE 4.6 mph - N/A   Overcast
5:55 PM 68.0 °F 68.0 °F 100% 30.11 in 10.0 mi NE 3.5 mph - N/A   Overcast
6:15 PM 68.0 °F 68.0 °F 100% 30.11 in 10.0 mi East 3.5 mph - N/A   Overcast
6:35 PM 68.0 °F 68.0 °F 100% 30.11 in 10.0 mi ENE 3.5 mph - N/A   Overcast
6:55 PM 69.8 °F 69.8 °F 100% 30.11 in 10.0 mi ENE 5.8 mph - N/A   Overcast
7:15 PM 68.0 °F 68.0 °F 100% 30.11 in 10.0 mi ENE 4.6 mph - N/A   Overcast
7:35 PM 68.0 °F 68.0 °F 100% 30.11 in 10.0 mi ENE 4.6 mph - N/A   Overcast
7:55 PM 68.0 °F 68.0 °F 100% 30.12 in 10.0 mi East 4.6 mph - N/A   Overcast
8:15 PM 68.0 °F 68.0 °F 100% 30.12 in 10.0 mi East 3.5 mph - N/A   Overcast
8:35 PM 68.0 °F 68.0 °F 100% 30.13 in 10.0 mi ESE 3.5 mph - N/A   Scattered Clouds
8:55 PM 68.0 °F 68.0 °F 100% 30.13 in 10.0 mi East 4.6 mph - N/A   Scattered Clouds
9:15 PM 66.2 °F 66.2 °F 100% 30.12 in 10.0 mi East 4.6 mph - N/A   Scattered Clouds
9:35 PM 68.0 °F 68.0 °F 100% 30.13 in 10.0 mi Calm Calm - N/A   Mostly Cloudy
9:55 PM 68.0 °F 68.0 °F 100% 30.14 in 10.0 mi Calm Calm - N/A   Overcast
10:15 PM 68.0 °F 68.0 °F 100% 30.13 in 10.0 mi ENE 4.6 mph - N/A   Overcast
10:35 PM 68.0 °F 68.0 °F 100% 30.13 in 10.0 mi ENE 4.6 mph - N/A   Overcast
10:55 PM 66.2 °F 66.2 °F 100% 30.13 in 10.0 mi ENE 4.6 mph - N/A   Overcast
11:15 PM 66.2 °F 66.2 °F 100% 30.13 in 10.0 mi ENE 3.5 mph - N/A   Overcast
11:35 PM 68.0 °F 68.0 °F 100% 30.13 in 10.0 mi NE 4.6 mph - N/A   Overcast
11:55 PM 68.0 °F 68.0 °F 100% 30.13 in 10.0 mi ENE 3.5 mph - N/A   Overcast